Date String (YYYY-MM-DD hh:mm:ss) UTC,Instrument flags,Ambient pressure (hPa),Sample flow (lpm),Bypass flow (lpm),Sample temperature (°C),Ambient temperature (°C),ASC tube jacket temperature (°C),LED temperature (°C),Box temperature (°C),Sample RH (%),Span deviation,Mass concentration (μg/m³),Mass concentration (μg/m³),Mass concentration (μg/m³)
DateTimeUTC,F1_M11,P_M11,Q1_M11,Q2_M11,T1_M11,T2_M11,T3_M11,T4_M11,T5_M11,U1_M11,ZSPAN_M11,X2_M11,X0_M11,X1_M11
2022-10-26 13:00:00,,0823.4,5.00,0.00,22.2,20.7,00.0,31.0,24.0,14.8,0000.0,0002.45,0007.67,0001.45
2022-10-26 13:01:00,,0823.4,5.00,0.00,22.2,20.7,00.0,31.0,24.1,14.9,0000.0,0002.49,0007.86,0001.45
2022-10-26 13:02:00,,0823.5,5.01,0.00,22.2,20.7,00.0,31.0,24.1,14.9,0000.0,0002.46,0008.13,0001.44
2022-10-26 13:03:00,,0823.5,5.00,0.00,22.2,20.7,00.0,31.0,24.1,14.8,0000.0,0002.45,0008.16,0001.43
2022-10-26 13:04:00,,0823.5,4.98,0.00,22.2,20.7,00.0,31.0,24.1,14.8,0000.0,0002.40,0007.72,0001.43
2022-10-26 13:05:00,,0823.4,5.00,0.00,22.2,20.7,00.0,31.0,24.1,14.9,0000.0,0002.27,0006.35,0001.43
2022-10-26 13:06:00,,0823.4,5.00,0.00,22.2,20.7,00.0,31.0,24.1,14.9,0000.0,0002.19,0006.55,0001.43
2022-10-26 13:07:00,,0823.4,5.02,0.00,22.2,20.7,00.0,31.0,24.1,14.9,0000.0,0002.17,0006.98,0001.42
2022-10-26 13:08:00,,0823.3,4.98,0.00,22.2,20.7,00.0,31.0,24.1,14.9,0000.0,0002.16,0006.80,0001.43
2022-10-26 13:09:00,,0823.4,5.01,0.00,22.2,20.7,00.0,31.0,24.1,14.9,0000.0,0002.19,0006.80,0001.44
2022-10-26 13:10:00,,0823.4,5.00,0.00,22.2,20.7,00.0,31.0,24.1,14.9,0000.0,0002.20,0006.71,0001.45
2022-10-26 13:11:00,,0823.4,4.98,0.00,22.2,20.7,00.0,31.0,24.1,14.9,0000.0,0002.18,0006.50,0001.46
2022-10-26 13:12:00,,0823.4,5.02,0.00,22.2,20.7,00.0,31.0,24.0,14.9,0000.0,0002.19,0006.21,0001.47
2022-10-26 13:13:00,,0823.4,5.00,0.00,22.2,20.7,00.0,31.0,24.0,14.9,0000.0,0002.19,0005.50,0001.48
2022-10-26 13:14:00,,0823.4,5.01,0.00,22.2,20.7,00.0,31.0,24.0,14.9,0000.0,0002.21,0005.47,0001.50
2022-10-26 13:15:00,,0823.3,4.98,0.00,22.2,20.7,00.0,31.0,24.0,14.9,0000.0,0002.26,0006.41,0001.51
2022-10-26 13:16:00,,0823.3,5.02,0.00,22.2,20.7,00.0,31.0,24.1,14.9,0000.0,0002.33,0006.89,0001.51
2022-10-26 13:17:00,,0823.3,4.98,0.00,22.2,20.7,00.0,31.0,24.1,14.8,0000.0,0002.34,0006.77,0001.51
2022-10-26 13:18:00,,0823.4,4.99,0.00,22.2,20.7,00.0,31.0,24.0,14.8,0000.0,0002.33,0005.17,0001.52
2022-10-26 13:19:00,,0823.3,5.01,0.00,22.2,20.7,00.0,31.0,24.1,14.8,0000.0,0002.31,0005.32,0001.51
2022-10-26 13:20:00,,0823.4,5.00,0.00,22.2,20.7,00.0,31.0,24.1,14.8,0000.0,0002.30,0005.30,0001.52
2022-10-26 13:21:00,,0823.3,5.00,0.00,22.2,20.7,00.0,31.0,24.2,14.8,0000.0,0002.31,0005.40,0001.51
2022-10-26 13:22:00,,0823.3,5.00,0.00,22.2,20.7,00.0,31.0,24.1,14.8,0000.0,0002.32,0005.63,0001.50
2022-10-26 13:23:00,,0823.4,5.00,0.00,22.2,20.7,00.0,31.0,24.1,14.8,0000.0,0002.28,0005.71,0001.51
2022-10-26 13:24:00,,0823.4,5.00,0.00,22.2,20.7,00.0,31.0,24.1,14.9,0000.0,0002.28,0005.81,0001.50
2022-10-26 13:25:00,,0823.4,5.00,0.00,22.2,20.7,00.0,31.0,24.0,14.9,0000.0,0002.31,0006.02,0001.49
2022-10-26 13:26:00,,0823.3,5.00,0.00,22.2,20.7,00.0,31.0,24.0,14.9,0000.0,0002.25,0005.25,0001.48
2022-10-26 13:27:00,,0823.3,5.00,0.00,22.2,20.7,00.0,31.0,24.0,14.9,0000.0,0002.23,0005.34,0001.48
2022-10-26 13:28:00,,0823.3,5.00,0.00,22.2,20.7,00.0,31.0,24.1,14.9,0000.0,0002.23,0005.55,0001.47
2022-10-26 13:29:00,,0823.3,5.00,0.00,22.2,20.7,00.0,31.0,24.1,14.9,0000.0,0002.28,0005.70,0001.46
2022-10-26 13:30:00,,0823.4,5.00,0.00,22.2,20.7,00.0,31.0,24.1,15.0,0000.0,0002.31,0006.38,0001.47
2022-10-26 13:31:00,,0823.4,4.99,0.00,22.2,20.7,00.0,31.0,24.1,14.9,0000.0,0002.34,0007.56,0001.47
2022-10-26 13:32:00,,0823.4,5.00,0.00,22.2,20.7,00.0,31.0,24.1,14.9,0000.0,0002.35,0008.44,0001.46
2022-10-26 13:33:00,,0823.4,5.00,0.00,22.2,20.7,00.0,31.0,24.0,14.9,0000.0,0002.37,0008.44,0001.46
2022-10-26 13:34:00,,0823.4,5.00,0.00,22.2,20.7,00.0,31.0,24.1,14.9,0000.0,0002.39,0008.42,0001.46
2022-10-26 13:35:00,,0823.4,5.00,0.00,22.2,20.7,00.0,31.0,24.1,14.9,0000.0,0002.41,0008.60,0001.48
2022-10-26 13:36:00,,0823.3,5.00,0.00,22.2,20.7,00.0,31.0,24.1,14.9,0000.0,0002.41,0008.88,0001.48
2022-10-26 13:37:00,,0823.4,5.00,0.00,22.2,20.7,00.0,31.0,24.1,15.0,0000.0,0002.42,0008.99,0001.48
2022-10-26 13:38:00,,0823.4,4.99,0.00,22.2,20.7,00.0,31.0,24.0,14.9,0000.0,0002.42,0008.70,0001.48
2022-10-26 13:39:00,,0823.4,5.00,0.00,22.2,20.7,00.0,31.0,24.0,15.0,0000.0,0002.42,0008.57,0001.49
2022-10-26 13:40:00,,0823.4,5.00,0.00,22.2,20.7,00.0,31.0,24.0,15.1,0000.0,0002.42,0008.58,0001.51
2022-10-26 13:41:00,,0823.4,5.00,0.00,22.2,20.7,00.0,31.0,24.0,15.2,0000.0,0002.41,0008.15,0001.51
2022-10-26 13:42:00,,0823.4,5.00,0.00,22.2,20.7,00.0,31.0,24.0,15.2,0000.0,0002.43,0007.45,0001.52
2022-10-26 13:43:00,,0823.3,5.00,0.00,22.2,20.7,00.0,31.0,24.1,15.2,0000.0,0002.41,0006.04,0001.52
2022-10-26 13:44:00,,0823.3,5.02,0.00,22.2,20.7,00.0,31.0,24.1,15.3,0000.0,0002.36,0005.73,0001.52
2022-10-26 13:45:00,,0823.3,5.00,0.00,22.2,20.7,00.0,31.0,24.1,15.3,0000.0,0002.37,0005.73,0001.51
2022-10-26 13:46:00,,0823.4,5.00,0.00,22.2,20.7,00.0,31.0,24.1,15.3,0000.0,0002.38,0005.47,0001.51
2022-10-26 13:47:00,,0823.4,5.00,0.00,22.2,20.7,00.0,31.0,24.1,15.2,0000.0,0002.34,0004.83,0001.50
2022-10-26 13:48:00,,0823.4,4.99,0.00,22.2,20.8,00.0,31.0,24.1,15.3,0000.0,0002.41,0005.55,0001.50
2022-10-26 13:49:00,,0823.4,5.01,0.00,22.2,20.8,00.0,31.0,24.2,15.3,0000.0,0002.40,0005.45,0001.50
2022-10-26 13:50:00,,0823.4,5.00,0.00,22.2,20.8,00.0,31.0,24.1,15.3,0000.0,0002.43,0005.84,0001.52
2022-10-26 13:51:00,,0823.3,5.00,0.00,22.2,20.8,00.0,31.0,24.1,15.3,0000.0,0002.48,0007.08,0001.52
2022-10-26 13:52:00,,0823.4,5.00,0.00,22.2,20.8,00.0,31.0,24.1,15.4,0000.0,0002.51,0007.38,0001.51
2022-10-26 13:53:00,,0823.3,5.00,0.00,22.2,20.8,00.0,31.0,24.2,15.4,0000.0,0002.49,0007.36,0001.52
2022-10-26 13:54:00,,0823.4,5.00,0.00,22.2,20.8,00.0,31.0,24.2,15.4,0000.0,0002.46,0007.27,0001.51
2022-10-26 13:55:00,,0823.4,5.00,0.00,22.2,20.8,00.0,31.0,24.2,15.4,0000.0,0002.48,0007.38,0001.50
2022-10-26 13:56:00,,0823.3,5.00,0.00,22.2,20.8,00.0,31.0,24.2,15.4,0000.0,0002.48,0007.67,0001.51
2022-10-26 13:57:00,,0823.3,5.00,0.00,22.3,20.9,00.0,31.0,24.2,15.4,0000.0,0002.43,0007.69,0001.51
2022-10-26 13:58:00,,0823.4,5.00,0.00,22.3,20.9,00.0,31.0,24.2,15.4,0000.0,0002.43,0007.66,0001.51
2022-10-26 13:59:00,,0823.4,5.00,0.00,22.3,20.9,00.0,31.1,24.2,15.4,0000.0,0002.40,0006.99,0001.50
